User: anonymous   Login
Location: Strohbehn Observatory
(42.4649°N, 93.8239°W)
Time: 06:58:28
(UTC-05:00)
Language:

SL-16 R/B - Orbit

View from above orbital plane
View from above orbital plane
View from above satellite
View from above satellite

Ground track
Ground track

The orbit data is extracted from the following two-line orbital elements,

1 31793U 07029B   16238.75796498 -.00000142  00000-0 -49429-4 0  9997
2 31793  70.9761 289.7090 0002850 268.1855 232.7799 14.14369734472947
Epoch (UTC): 25 August 2016 18:11:28
Eccentricity: 0.0002850
inclination: 70.9761°
perigee height: 842 km
apogee height: 846 km
right ascension of ascending node: 289.7090°
argument of perigee: 268.1855°
revolutions per day: 14.14369734
mean anomaly at epoch: 232.7799°
orbit number at epoch: 47294

The dashed part of the orbit path shows where the satellite is in the earth's shadow,  

DLR